Miscellaneous Local Product
Issued by NWS Hastings, NE

Home | Current Version | Previous Version | Graphics & Text | Print | Product List | Glossary On
Versions: 1 2 3 4 5 6 7 8 9 10 11 12 13 14 15 16 17 18 19 20 21 22 23 24 25 26 27 28 29 30 31 32 33 34 35 36 37 38 39 40 41 42 43 44 45 46 47 48 49 50
246
AXUS43 KGID 281702
MISGRI

GID CWA HOURLY WEATHER ROUNDUP
NATIONAL WEATHER SERVICE HASTINGS NE
1200 PM CDT THU APR 28 2016

NOTE: "FAIR" INDICATES FEW OR NO CLOUDS BELOW 12,000 FEET WITH NO
SIGNIFICANT WEATHER AND/OR OBSTRUCTIONS TO VISIBILITY.

...SOUTH CENTRAL NEBRASKA...

CITY           SKY/WX    TMP DP  RH WIND       PRES   REMARKS
GRAND ISLAND   CLOUDY    46  40  79 NW17      29.99R
HASTINGS       CLOUDY    45  38  76 NW13      29.99R
KEARNEY        CLOUDY    46  37  71 N13       30.00R
ORD            CLOUDY    44  40  85 NW16      29.97S
YORK           CLOUDY    48  41  76 N10       29.96R
AURORA         CLOUDY    48  42  81 NW14      29.98R
LEXINGTON      CLOUDY    46  37  70 N8        30.02R
HOLDREGE       CLOUDY    45  37  74 NW8       30.01R
HEBRON         CLOUDY    48  41  78 NW10      29.99R

...NEBRASKA PANHANDLE...

CITY           SKY/WX    TMP DP  RH WIND       PRES   REMARKS
CHADRON        CLOUDY    38  33  82 NE10      30.05R WCI  31
ALLIANCE       CLOUDY    37  29  72 N9        30.02R WCI  30
SCOTTSBLUFF    CLOUDY    43  31  62 NE10      30.00F
SIDNEY         CLOUDY    42  28  57 N13       30.01R

...WESTERN AND NORTH CENTRAL NEBRASKA...

CITY           SKY/WX    TMP DP  RH WIND       PRES   REMARKS
VALENTINE      CLOUDY    40  33  76 NW13      30.02R WCI  32
AINSWORTH      CLOUDY    40  37  87 NW13      30.01S WCI  32
ONEILL         CLOUDY    42  40  92 NW14      29.98S
BROKEN BOW     CLOUDY    43  39  86 N17       30.00R
IMPERIAL       MOSUNNY   46  32  58 N10G18    30.01F
NORTH PLATTE   CLOUDY    44  33  65 N7        30.01S
MCCOOK         MOSUNNY   49  34  56 VRB3      30.01S

...EASTERN NEBRASKA...

CITY           SKY/WX    TMP DP  RH WIND       PRES   REMARKS
NORFOLK        CLOUDY    46  39  76 N15G23    29.94R
SO SIOUX CITY  CLOUDY    46  41  82 N12       29.94R
TEKAMAH        CLOUDY    48  44  86 N14       29.93R
COLUMBUS       CLOUDY    48  36  61 NW15G22   29.96R
ALBION         CLOUDY    45  42  90 N16G22    29.96S
OMAHA EPPLEY   CLOUDY    49  43  80 NW13      29.92R
OFFUTT AFB     CLOUDY    49  44  82 NW8       29.92R
MILLARD        CLOUDY    49  42  78 NW9       29.92R
LINCOLN        CLOUDY    51  41  68 NW14      29.96R
NEBRASKA CITY  CLOUDY    49  44  82 NW13G18   29.94R
BEATRICE       CLOUDY    48  42  80 NW13      29.97R
FALLS CITY     CLOUDY    53  45  74 W12       29.94R

...NORTHERN KANSAS...

CITY           SKY/WX    TMP DP  RH WIND       PRES   REMARKS
GOODLAND       PTSUNNY   46  30  53 N14G20    30.00S
HILL CITY      MOSUNNY   50  34  54 N12       30.02S
NORTON         MOSUNNY   48  34  57 NW10      30.00S
PHILLIPSBURG   MOSUNNY   50  37  62 NW3G16    30.01S
SMITH CENTER   MOSUNNY   50  41  71 NW8G16    30.01S
BELOIT         CLOUDY    48  37  66 NW10      30.00R
HAYS           PTSUNNY   48  30  49 NW10      30.01F
RUSSELL        PTSUNNY   50  36  58 NW12      30.00R
CONCORDIA      CLOUDY    49  40  71 N10       30.00R
SALINA         MOSUNNY   57  41  55 NW10G20   29.99S
TOPEKA         PTSUNNY   54  44  69 W10G20    29.97S



USA.gov is the U.S. government's official web portal to all federal, state and local government web resources and services.